Flag for Germany Weather past 2 weeks in Velbert, North Rhine-Westphalia, Germany

Now
60 °F

Drizzle. Low clouds.


Feels Like: 60 °F
Forecast: 50 / 64 °F
Wind: 3 mph from Northwest

Location: Essen

Current Time: Sep 1, 2015 at 4:24:42 PM

Latest Report: Sep 1, 2015 at 4:00 PM


Visibility: 8 mi

Pressure: 29.94 "Hg

Humidity: 95%

Dew point: 58 °F

Location of VelbertLocation

Historic Weather in Velbert — Graph

°F

Velbert temperature yesterday

Maximum temperature yesterday: 88 °F (at 3:00 PM)
Minimum temperature yesterday: 68 °F (at 7:00 AM)
Average temperature yesterday: 77 °F

Past Weeks' High & Low Weather Summary

 TemperatureHumidityPressure
High88 °F (Aug 31, 3:00 PM)100% (Aug 17, 5:00 PM)30.25 "Hg (Aug 17, 5:00 PM)
Low51 °F (Aug 19, 4:00 AM)30% (Aug 31, 6:00 PM)29.53 "Hg (Aug 24, 5:00 PM)
Average66 °F73%29.97 "Hg
* Reported Aug 17 3:00 PM — Sep 1 3:00 PM, Velbert, Weather by CustomWeather, © 2015

Note: Actual official high and low records may vary slightly from our data, if they occured in-between our weather recording intervals... More about our weather records

Advertising

Velbert weather history for previous 24 hours

 ConditionsComfort  
Time TempWeatherWind HumidityBarometerVisibility
3:00 PM
Tue, Sep 1
58 °FLight rain. Low clouds.3 mph96%29.92 "Hg4 mi
2:00 PM59 °FLight rain. Low clouds.3 mph95%29.90 "Hg11 mi
1:00 PM60 °FLight rain. Low clouds.3 mph98%29.88 "Hg5 mi
12:00 PM60 °FLight rain. Low clouds.3 mph98%29.86 "Hg4 mi
11:00 AM59 °FRain. Low clouds.5 mph98%29.85 "Hg3 mi
10:00 AM60 °FLight rain. Low clouds.5 mph96%29.83 "Hg6 mi
9:00 AM60 °FLight rain. Low clouds.5 mph97%29.83 "Hg6 mi
8:00 AM62 °FRain. Low clouds.3 mph93%29.84 "Hg2 mi
7:00 AM62 °FOvercast.2 mph90%29.83 "Hg13 mi
6:00 AM63 °FOvercast.3 mph87%29.83 "Hg14 mi
5:00 AM63 °FOvercast.5 mph86%29.83 "Hg14 mi
4:00 AM64 °FOvercast.5 mph84%29.83 "Hg25 mi
3:00 AM65 °FOvercast.5 mph89%29.82 "Hg6 mi
2:00 AM67 °FOvercast.5 mph88%29.83 "Hg9 mi
1:00 AM68 °FOvercast.5 mph92%29.82 "Hg7 mi
11:00 PM
Mon, Aug 31
68 °FOvercast.5 mph90%29.82 "Hg22 mi
10:00 PM69 °FLight rain. Low clouds.3 mph86%29.83 "Hg4 mi
9:00 PM72 °FOvercast.5 mph73%29.81 "Hg37 mi
8:00 PM77 °FPartly sunny.5 mph67%29.78 "Hg14 mi
7:00 PM85 °FScattered clouds.6 mph40%29.75 "Hg25 mi
6:00 PM87 °FSunny.8 mph30%29.75 "Hg13 mi
5:00 PM88 °FSunny.6 mph33%29.75 "Hg16 mi
4:00 PM88 °FSunny.5 mph38%29.75 "Hg11 mi
Weather by CustomWeather, © 2015

See weather overviewHow to use our weather pages